TimeEST,TemperatureF,Dew PointF,Humidity,Sea Level PressureIn,VisibilityMPH,Wind Direction,Wind SpeedMPH,Gust SpeedMPH,PrecipitationIn,Events,Conditions,WindDirDegrees,DateUTC
12:52 AM,37.9,19.0,47,30.12,10.0,SSW,23.0,41.4,N/A,,Clear,210,2013-01-19 05:52:00
1:52 AM,36.0,19.9,52,30.11,10.0,South,27.6,41.4,N/A,,Clear,190,2013-01-19 06:52:00
2:52 AM,35.1,21.0,57,30.12,10.0,SSW,23.0,34.5,N/A,,Clear,200,2013-01-19 07:52:00
3:52 AM,36.0,19.9,52,30.11,10.0,SSW,21.9,29.9,N/A,,Clear,210,2013-01-19 08:52:00
4:52 AM,36.0,19.9,52,30.10,10.0,SSW,18.4,29.9,N/A,,Clear,210,2013-01-19 09:52:00
5:52 AM,36.0,19.9,52,30.10,10.0,SSW,18.4,29.9,N/A,,Clear,200,2013-01-19 10:52:00
6:52 AM,36.0,21.0,55,30.10,10.0,SSW,17.3,23.0,N/A,,Clear,210,2013-01-19 11:52:00
7:52 AM,36.0,21.0,55,30.11,10.0,SSW,15.0,28.8,N/A,,Clear,200,2013-01-19 12:52:00
8:52 AM,37.4,21.2,52,30.06,10.0,SSW,21.9,28.8,N/A,,Clear,200,2013-01-19 13:52:00
9:52 AM,41.0,21.9,47,30.10,10.0,SSW,19.6,28.8,N/A,,Clear,210,2013-01-19 14:52:00
10:52 AM,43.0,24.1,47,30.09,10.0,SSW,24.2,29.9,N/A,,Clear,210,2013-01-19 15:52:00
11:52 AM,45.0,25.0,46,30.05,10.0,SSW,17.3,28.8,N/A,,Clear,210,2013-01-19 16:52:00
12:52 PM,46.0,26.1,46,30.00,10.0,SSW,24.2,32.2,N/A,,Clear,210,2013-01-19 17:52:00
1:52 PM,46.9,27.0,46,29.96,10.0,SSW,23.0,31.1,N/A,,Clear,200,2013-01-19 18:52:00
2:52 PM,48.0,27.0,44,29.92,10.0,SSW,24.2,38.0,N/A,,Clear,200,2013-01-19 19:52:00
3:52 PM,48.0,26.1,42,29.88,10.0,SSW,26.5,35.7,N/A,,Clear,200,2013-01-19 20:52:00
4:52 PM,46.9,25.0,42,29.86,10.0,South,23.0,33.4,N/A,,Clear,190,2013-01-19 21:52:00
5:52 PM,46.9,24.1,41,29.83,10.0,South,25.3,34.5,N/A,,Clear,190,2013-01-19 22:52:00
6:52 PM,46.9,24.1,41,29.85,10.0,SSW,17.3,27.6,N/A,,Clear,210,2013-01-19 23:52:00
7:52 PM,46.0,25.0,44,29.84,10.0,SSW,24.2,34.5,N/A,,Clear,210,2013-01-20 00:52:00
8:52 PM,45.0,25.0,46,29.82,10.0,SSW,21.9,38.0,N/A,,Clear,210,2013-01-20 01:52:00
9:52 PM,45.0,26.1,48,29.80,10.0,SW,24.2,35.7,N/A,,Clear,220,2013-01-20 02:52:00
10:52 PM,44.1,27.0,51,29.78,10.0,SSW,23.0,36.8,N/A,,Scattered Clouds,210,2013-01-20 03:52:00
11:52 PM,44.1,28.0,53,29.76,10.0,SW,23.0,38.0,N/A,,Partly Cloudy,220,2013-01-20 04:52:00